Regional Weather Roundup
Issued by NWS New Orleans/Baton Rouge, LA

Home | Current Version | Previous Version | Text Only | Print | Product List | Glossary On
Versions: 1 2 3 4 5 6 7 8 9 10 11 12 13 14 15 16 17 18 19 20 21 22 23 24 25 26 27 28 29 30 31 32 33 34 35 36 37 38 39 40 41 42 43 44 45 46 47 48 49 50
326
ASUS44 KLIX 280605
RWRLIX
NEW ORLEANS REGIONAL WEATHER ROUNDUP
NATIONAL WEATHER SERVICE NEW ORLEANS LA
1200 AM CST SUN DEC 28 2014

NOTE: "FAIR" INDICATES FEW OR NO CLOUDS BELOW 12,000 FEET WITH NO
      SIGNIFICANT WEATHER AND/OR OBSTRUCTIONS TO VISIBILITY.
      SKY/WX - SKY CONDITION AND SIGNIFICANT WEATHER.
      TMP - AIR TEMPERATURE.     DP    - DEWPOINT TEMPERATURE.
      RH  - RELATIVE HUMIDITY.   PRES  - PRESSURE.
      HI  - HEAT INDEX.          WCI   - WIND CHILL INDEX.

*  THESE STATIONS ARE NOT NWS OR FAA STATIONS AND ARE NOT UNDER
   NWS QUALITY CONTROL.

LAZ038-040-048-061>063-065>067-069-280700-
SOUTHEAST LOUISIANA

CITY           SKY/WX    TMP DP  RH WIND       PRES   REMARKS
N.O. AUDUBON     N/A     70  70 100 MISG        N/A
6HR MIN TEMP:  67; 6HR MAX TEMP:  72;

N.O. INTL ARPT FOG       68  66  93 S8        30.06F VSB 3/4
6HR MIN TEMP:  68; 6HR MAX TEMP:  71;

N.O. LAKEFRONT CLOUDY    70  67  90 S7        30.06F FOG
6HR MIN TEMP:  69; 6HR MAX TEMP:  73;

N.O. DOWNTOWN* CLOUDY    70  66  88 S7        30.07F
6HR MIN TEMP:  70; 6HR MAX TEMP:  72;

SLIDELL        CLOUDY    68  67  96 S6        30.05F FOG
6HR MIN TEMP:  68; 6HR MAX TEMP:  69;

BATON ROUGE    CLOUDY    71  69  93 SW13      30.04F
6HR MIN TEMP:  71; 6HR MAX TEMP:  72; 6HR PCP:  0.40;

BOOTHVILLE     FOG       69  69 100 S3        30.09F VSB 3/4
6HR MIN TEMP:  67; 6HR MAX TEMP:  71; 6HR PCP: TRACE;

BELLE CHASSE   FOG       69  68  96 S6        30.06F VSB 1/2
6HR MIN TEMP:  69; 6HR MAX TEMP:  71; 6HR PCP: TRACE;

BOGALUSA*        N/A     71  67  88 S6        30.06F
6HR MIN TEMP:  64; 6HR MAX TEMP:  72;

GALLIANO*      FOG       62  61  97 MISG      30.07F VSB<1/4
6HR MIN TEMP:  62; 6HR MAX TEMP:  68;

NEW ROADS*     HVY RAIN  67  66  96 NW8       30.05R
6HR MIN TEMP:  67; 6HR MAX TEMP:  72; 6HR PCP:  0.08;

GONZALES*      CLOUDY    70  70 100 SW5       30.04F FOG
6HR MIN TEMP:  70; 6HR MAX TEMP:  72;

HAMMOND*       NOT AVBL
HOUMA*         CLOUDY    70  69  98 S6        30.06F FOG
6HR MIN TEMP:  69; 6HR MAX TEMP:  72;

PORT FOURCHON* FOG       68  68 100 CALM      30.10F VSB 0

$$

MSZ070-080>082-280700-
SOUTHERN MISSISSIPPI

CITY           SKY/WX    TMP DP  RH WIND       PRES   REMARKS
MCCOMB         RAIN      70  68  93 SW8       30.03F FOG
6HR MIN TEMP:  64; 6HR MAX TEMP:  70; 6HR PCP:  0.29;

GULFPORT       FOG       63  63 100 SE5       30.08F VSB 1/2
6HR MIN TEMP:  63; 6HR MAX TEMP:  66; 6HR PCP:  0.06;

BILOXI         FOG       66  66 100 VRB3      30.08F VSB 1/2
6HR MIN TEMP:  66; 6HR MAX TEMP:  68; 6HR PCP:  0.03;

PASCAGOULA     LGT RAIN  65  65 100 S7        30.08F FOG
6HR MIN TEMP:  65; 6HR MAX TEMP:  67; 6HR PCP:  0.08;


$$

COASTAL OBSERVATIONS
LAKE AND NEARSHORE STATIONS

STATION/POSITION TIME  TEMP    WIND        PRES    WAVE
                       AIR SEA DIR/SP/G            HT/PER
                 (UTC) (F)     (DEG/KT/KT) (MB)    (FT/S)
PASCAGOULA       0600   65     100/  3/  5 1018.4
WAVELAND YACHT   0600   67     200/  5/  7 1017.8
GRAND ISLE       0600   66 64  160/  2/  3 1019.0
SOUTHWEST PASS   0600   69                 1018.7
NEW CANAL        0600   69 58  200/  5/  8 1018.3
SHELL BEACH      0600   68 61  170/  5/  6 1018.4

OFFSHORE STATIONS

STATION/POSITION TIME  TEMP    WIND        PRES    WAVE
                       AIR SEA DIR/SP/G            HT/PER
                 (UTC) (F)     (DEG/KT/KT) (MB)    (FT/S)
64 S DAUPHIN ISL 0600   73 74  170/ 17/ 19 1018.2    4/ 7

$$




USA.gov is the U.S. government's official web portal to all federal, state and local government web resources and services.